Starlink 4778

operational
NORAD ID: 53836 Int'l Des: 2022-114 Owner: SPXS Country: US Constellation: starlink
LEOCIRCULAR

About Starlink 4778

Description loading...

Live Position

Loading 3D Globe...

Upcoming Passes

Altitude History

Altitude vs Time

uPlot chart will show altitude changes over time

Two-Line Element Set

1 53836U 22114U 26037.12602175 -.00002995 00000-0 -17018-3 0 9994
2 53836 53.2174 76.0151 0001207 86.1905 273.9225 15.08835794188207
Epoch: Feb 6, 2026 • Age: 6 hours

Current Status

Altitude 540.0 km
Velocity 7.59 km/s
Sub-Earth Point 6.48°N, 14.64°W
Launch Date Sep 19, 2022
Age 3.3 years
Type internet

Technical Details

Classification Payload
Mass 305.00 kg
Dry Mass 290.00 kg
Total Mass 305.00 kg
Length 0.20 m
Diameter 2.80 m
Span 9.00 m
Shape Box + pan
Manufacturer SPXS
Bus Type Starlink
Phase Status In Orbit
Owner/State SPXS/US

Large Constellations

Loading constellations...